Погода в Уеге

Погода в Уеге : погода сейчас, прогноз погоды и архив. Всё, что Вы хотите узнать о погоде в Уеге!

Поиск расширенной информации на нашем сайте:

Другие новости

Новости СМИ2

Главная страница сайта

Новости сайта

03.07.2017

Напоминаем, что на нашем специализированном сайте Метеоцентр.Азия вы можете получить высокодетализированные автоматические прогнозы погоды по пунктам России, СНГ и мира в авиационном формате (включающие направление и скорость ветра, видимость, явления погоды, количество и форму облачности, нижнюю и верхнюю границу облачности).


Погода в Уеге - сегодня

Время (UTC), дата Ветер
(°,м/с) 
Видим.   Явления Облачность Т
(°С)
Тd
(°С)
f(%) Тe
(°С)
Pmin
(гПа)
dP
(гПа)
Po
(мм)
O2
(г/м3)
Тmin Tmax R s Состояние
почвы
18 19.04.18 тихо ()   20000 м    9/6 600 м кучево-дожд., верхняя 
[Cb cap|Ci fib]
-3.6 -4.7 92 -4  1011  0.5  721  295           
00 20.04.18 350 (С) 20000 м    4/4 600 м кучево-дожд. 
[Cb cap]
+1.4 -9.8 43 +1  1010.2  -0.2  721  290           
03 20.04.18 290 (З) 20000 м    9/6 600 м кучево-дожд., верхняя 
[Cb cap|Ci fib]
+3.7 -9.1 39 +3  1009  -0.7  721  287           
06 20.04.18 210 (ЮЗ) 20000 м    8/8 600 м кучево-дожд. 
[Cb cap]
+3.6 -9.1 39 +4  1009  721  287           
12 20.04.18 190 (Ю) 20000 м    8/8 600 м кучево-дожд. 
[Cb cap]
-0.2 -3.8 77 1010.8  722  291           
15 20.04.18 тихо ()   20000 м    9/9 600 м кучево-дожд. 
[Cb cap]
-2.7 -4 91 -3  1012  0.7  722  294           
18 20.04.18 тихо ()   20000 м    10/10 600 м кучево-дожд. 
[Cb cap]
-2.7 -3.5 94 -3  1012.2  0.2  722  294           
21 20.04.18 010 (С) 4000 м  слаб. ливневой снег  9/9 600 м кучево-дожд. 
[Cb cap]
-2.2 -3.3 92 -2  1012.4  0.2  722  294  -3.1    0.6  13  мокрый или
старый снег
50-90% 
03 21.04.18 160 (Ю) 20000 м  в посл. час ливневой снег  10/5 600 м кучево-дожд., средняя, верхняя 
[Cb cap|Ac trans|Cs]
+2 -3.8 65 +1  1011.2  -0.3  722  289           
06 21.04.18 050 (СВ) 1000 м  ливневой снег  10/10 600 м кучево-дожд. 
[Cb cap]
-0.3 -0.7 97 1011.2  -0.3  722  291           
12 21.04.18 160 (Ю) 20000 м  {ливн. осадки}  9/9 600 м кучево-дожд. 
[Cb cap]
-0.8 -3 85 1012.6  0.8  723  292           
15 21.04.18 270 (З) 20000 м    10/10 600 м кучево-дожд. 
[Cb cap]
-1.8 -5 79 -1  1012.8  723  294           
18 21.04.18 тихо ()   20000 м    8/8 600 м кучево-дожд. 
[Cb cap]
-5.7 -6.1 97 -6  1013.7  0.2  723  298           
00 22.04.18 330 (СЗ) 20000 м    9/9 600 м кучево-дожд. 
[Cb cap]
+1.8 -5.6 58 +1  1012.6  -0.3  723  290           
03 22.04.18 310 (СЗ) 20000 м    8/8 600 м кучево-дожд. 
[Cb cap]
+3.2 -8.6 42 +1  1011.8  -0.6  723  289           
06 22.04.18 330 (СЗ) 20000 м    8/8 600 м кучево-дожд. 
[Cb cap]
+3.9 -9.5 37 +3  1011.4  -0.3  722  288           
12 22.04.18 330 (СЗ) 20000 м    8/4 1000 м верхняя 
[Sc|Ci fib]
-3.1 -11.3 53 -3  1014.7  1.2  724  296           
15 22.04.18 320 (СЗ) 20000 м    6/1 1000 м верхняя 
[Sc|Ci fib]
-3.6 -11.9 53 -5  1015.5  0.6  724  297           
18 22.04.18 360 (С) 20000 м    8/0 верхняя 
[Ci fib]
-4 -12.1 53 -5  1016.6  725  298           
00 23.04.18 350 (С) 20000 м    ясно 
+2.8 -12.1 32 +2  1016.8  0.2  726  291           
03 23.04.18 300 (СЗ) 20000 м    1/1 1000 м 
[Cu hum]
+4.8 -11.4 30 +4  1015.8  -0.6  726  288           
06 23.04.18 290 (З) 20000 м    3/3 1000 м 
[Cu med, cong]
+5.1 -11.6 29 +3  1015  -0.7  725  288           
09 23.04.18 290 (З) 20000 м    ясно 
+4 -11.7 31 +3  1015.3  0.1  725  289    +5.5       
12 23.04.18 360 (С) 20000 м    ясно 
-2.8 -10.6 55 -2  1017.1  0.6  726  296           
15 23.04.18 330 (СЗ) 20000 м    ясно 
-4.3 -11.4 58 -7  1017.1  -0.3  725  298           
Время (UTC), дата Ветер
(°,м/с) 
Видим.   Явления Облачность Т
(°С)
Тd
(°С)
f(%) Тe
(°С)
Pmin
(гПа)
dP
(гПа)
Po
(мм)
O2
(г/м3)
Тmin Tmax R s Состояние
почвы

Для получения пояснительной информации подведите курсор к названию столбца.

ПОГОДА в Уеге - архив

Всё, что Вы хотите узнать о погоде в Уеге - удобно и подробно!

Выберите нужную дату (начиная с 1 января 2015* года) и нажмите кнопку "Найти".
Будут отображены архивные сводки погоды по пункту Уега, начиная с указанной даты.


Отображать данные в формате CSV (для использования в таблицах Excel)


Внимание! Наш архив погоды предназначен исключительно для личного некоммерческого использования в познавательных целях. Если Вам необходимы официальные справки о состоянии погоды (для производственных, юридических, коммерческих и т.п. целей), обращайтесь в органы Росгидромета.

*Примечание: данная дата относится к архиву по метеостанциям СССР (Россия, СНГ, Балтия).
Архив по метеостанциям Зарубежной Европы и Азии (кроме Китая) хранится 10 дней, по другим регионам земного шара (Китай, Африка, Америка, Австралия, Океания) - 1 день.

Уега - район местоположения метеостанции


Название, широта, долгота, высота метеостанции:
Уега 60.7°ш. 142.8°д. 398 м над ур. моря [Российская Федерация]

Дополнительная информация

В oтличие oт бoльшинства пoгoдных сайтoв мы публикуем пoдрoбную метеoинфoрмацию в детальнoм прoфессиoнальнoм фoрмате.

Характеристики температуры и влажнoсти вoздуха измеряются на высoте 2 м в тени вдали oт зданий и деревьев.
Скoрoсть ветра измеряется на высoте 10 м (на урoвне рoста челoвека скoрoсть ветра ниже в 1.5-2 раза). Если метеoстанция нахoдится в гoрoде или в лесу, тo скoрoсть ветра занижена на 2-4 м/с пo сравнению с oткрытым местoм. Скoрoсть ветра над акватoриями крупных рек и oзёр, а также на вершинах хoлмoв на 2-5 м/с выше, чем в oбычных услoвиях.
Атмoсфернoе давление в разных тoчках местнoсти мoжет значительнo oтличаться oт давления на метеoстанции, в зависимoсти oт услoвий рельефа (при пoдъёме на 10 м давление пoнижается примернo на 1 мм рт.ст.).